Weather History for Mammoth, CA

Change the Weather History Date:

Sunday, January 26, 2014

  Actual Average Record
Temperature  
Mean Temperature 34 °F -  
Max Temperature 53 °F 34 °F 53 °F (2012)
Min Temperature 14 °F 20 °F 14 °F (1999)
Degree Days  
Heating Degree Days 32    
Moisture  
Dew Point 9 °F    
Average Humidity 43    
Maximum Humidity 73    
Minimum Humidity 13    
Precipitation  
Precipitation 0.00 in - - ()
Sea Level Pressure  
Sea Level Pressure 30.21 in    
Wind  
Wind Speed 3 mph (WNW)    
Max Wind Speed 14 mph    
Max Gust Speed 18 mph    
Visibility 10 miles    
Events      
Averages and records for this station are not official NWS values.
T = Trace of Precipitation, MM = Missing Value Source: NWS Daily Summary

Daily Weather History Graph

Daily Weather History Graph

Search for Another Location

Airport:

Trip Planner

Search our weather history database for the weather conditions in past years. The results will help you decide how hot, cold, wet, or windy it might be!

Date:

Astronomy

Jan. 26, 2014 Rise Set
Actual Time 7:03 AM PST 5:12 PM PST
Civil Twilight 6:35 AM PST 5:40 PM PST
Nautical Twilight 6:03 AM PST 6:12 PM PST
Astronomical Twilight 5:32 AM PST 6:43 PM PST
Moon 2:45 AM PST (1/26) 1:07 PM PST (1/26)
Length of Visible Light 11h 05m
Length of Day
10h 09m
Waning Crescent, 23% of the Moon is Illuminated
Jan 26
Waning Crescent
Jan 30
New
Feb 6
First Quarter
Feb 14
Full
Feb 22
Last Quarter

Hourly Weather History & Observations

Time (PST) Temp. Windchill Dew Point Humidity Pressure Visibility Wind Dir Wind Speed Gust Speed Precip Events Conditions
12:15 AM 23.0 °F - 10.4 °F 59% 30.28 in 10.0 mi Calm Calm - N/A   Clear
12:35 AM 23.0 °F 17.0 °F 10.4 °F 59% 30.28 in 10.0 mi North 4.6 mph - N/A   Clear
12:55 AM 23.0 °F - 10.4 °F 59% 30.27 in 10.0 mi Calm Calm - N/A   Clear
1:15 AM 21.2 °F - 10.4 °F 63% 30.26 in 10.0 mi Calm Calm - N/A   Clear
1:35 AM 21.2 °F 16.4 °F 10.4 °F 63% 30.26 in 10.0 mi NNW 3.5 mph - N/A   Clear
1:55 AM 21.2 °F - 10.4 °F 63% 30.26 in 10.0 mi Calm Calm - N/A   Clear
2:15 AM 17.6 °F - 6.8 °F 63% 30.26 in 10.0 mi Calm Calm - N/A   Clear
2:35 AM 15.8 °F 10.2 °F 6.8 °F 68% 30.26 in 10.0 mi NNW 3.5 mph - N/A   Clear
2:55 AM 15.8 °F - 6.8 °F 68% 30.26 in 10.0 mi Calm Calm - N/A   Clear
3:15 AM 17.6 °F - 8.6 °F 68% 30.26 in 10.0 mi Calm Calm - N/A   Clear
3:35 AM 17.6 °F - 8.6 °F 68% 30.26 in 10.0 mi Calm Calm - N/A   Clear
3:55 AM 19.4 °F - 10.4 °F 68% 30.26 in 10.0 mi Calm Calm - N/A   Clear
4:15 AM 17.6 °F - 10.4 °F 73% 30.25 in 10.0 mi Calm Calm - N/A   Clear
4:35 AM 17.6 °F - 8.6 °F 68% 30.25 in 10.0 mi Calm Calm - N/A   Clear
4:55 AM 19.4 °F - 10.4 °F 68% 30.25 in 10.0 mi Calm Calm - N/A   Clear
5:15 AM 15.8 °F 10.2 °F 8.6 °F 73% 30.24 in 10.0 mi North 3.5 mph - N/A   Clear
5:35 AM 19.4 °F - 10.4 °F 68% 30.25 in 10.0 mi Calm Calm - N/A   Clear
5:55 AM 19.4 °F - 10.4 °F 68% 30.24 in 10.0 mi Calm Calm - N/A   Clear
6:15 AM 14.0 °F - 5.0 °F 67% 30.24 in 10.0 mi Calm Calm - N/A   Clear
6:35 AM 15.8 °F - 8.6 °F 73% 30.24 in 10.0 mi Calm Calm - N/A   Clear
6:55 AM 19.4 °F 14.3 °F 10.4 °F 68% 30.24 in 10.0 mi North 3.5 mph - N/A   Clear
7:15 AM 21.2 °F - 12.2 °F 68% 30.25 in 10.0 mi Calm Calm - N/A   Clear
7:35 AM 21.2 °F - 12.2 °F 68% 30.25 in 10.0 mi Calm Calm - N/A   Clear
7:55 AM 19.4 °F - 10.4 °F 68% 30.25 in 10.0 mi Calm Calm - N/A   Clear
8:15 AM 23.0 °F - 12.2 °F 63% 30.26 in 10.0 mi Calm Calm - N/A   Clear
8:35 AM 23.0 °F - 12.2 °F 63% 30.26 in 10.0 mi Calm Calm - N/A   Clear
8:55 AM 26.6 °F - 14.0 °F 59% 30.25 in 10.0 mi Calm Calm - N/A   Clear
9:15 AM 32.0 °F - 14.0 °F 48% 30.25 in 10.0 mi Calm Calm - N/A   Clear
9:35 AM 33.8 °F - 14.0 °F 44% 30.25 in 10.0 mi Calm Calm - N/A   Clear
9:55 AM 33.8 °F 28.6 °F 15.8 °F 48% 30.25 in 10.0 mi SE 5.8 mph - N/A   Clear
10:15 AM 35.6 °F 32.8 °F 15.8 °F 44% 30.25 in 10.0 mi SE 3.5 mph - N/A   Clear
10:35 AM 39.2 °F 34.2 °F 14.0 °F 36% 30.25 in 10.0 mi SE 6.9 mph - N/A   Clear
10:55 AM 39.2 °F 35.9 °F 14.0 °F 36% 30.24 in 10.0 mi SE 4.6 mph - N/A   Clear
11:15 AM 41.0 °F 38.0 °F 14.0 °F 33% 30.23 in 10.0 mi SE 4.6 mph - N/A   Clear
11:35 AM 46.4 °F - 14.0 °F 27% 30.21 in 10.0 mi Calm Calm - N/A   Clear
11:55 AM 51.8 °F - 12.2 °F 21% 30.20 in 10.0 mi NNE 6.9 mph - N/A   Clear
12:15 PM 51.8 °F - 12.2 °F 21% 30.19 in 10.0 mi North 3.5 mph - N/A   Clear
12:35 PM 53.6 °F - 12.2 °F 19% 30.17 in 10.0 mi NW 4.6 mph - N/A   Clear
12:55 PM 51.8 °F - 12.2 °F 21% 30.16 in 10.0 mi SE 5.8 mph - N/A   Clear
1:15 PM 51.8 °F - 12.2 °F 21% 30.16 in 10.0 mi East 4.6 mph - N/A   Clear
1:35 PM 51.8 °F - 12.2 °F 21% 30.15 in 10.0 mi SE 5.8 mph - N/A   Clear
1:55 PM 53.6 °F - 12.2 °F 19% 30.14 in 10.0 mi ENE 4.6 mph - N/A   Clear
2:15 PM 51.8 °F - 10.4 °F 19% 30.14 in 10.0 mi North 6.9 mph - N/A   Clear
2:35 PM 51.8 °F - 8.6 °F 18% 30.14 in 10.0 mi NNW 12.7 mph - N/A   Clear
2:55 PM 51.8 °F - 6.8 °F 16% 30.14 in 10.0 mi NNW 11.5 mph - N/A   Clear
3:15 PM 51.8 °F - 5.0 °F 15% 30.14 in 10.0 mi NNW 12.7 mph - N/A   Clear
3:35 PM 51.8 °F - 1.4 °F 13% 30.14 in 10.0 mi NNW 13.8 mph - N/A   Clear
3:55 PM 48.2 °F - 1.4 °F 15% 30.15 in 10.0 mi NW 11.5 mph 18.4 mph N/A   Clear
4:15 PM 46.4 °F 42.4 °F -0.4 °F 14% 30.14 in 10.0 mi WNW 8.1 mph - N/A   Clear
4:35 PM 44.6 °F 38.8 °F -0.4 °F 15% 30.15 in 10.0 mi West 11.5 mph - N/A   Clear
4:55 PM 44.6 °F 39.2 °F 1.4 °F 17% 30.15 in 10.0 mi West 10.4 mph - N/A   Clear
5:15 PM 42.8 °F 36.6 °F 3.2 °F 19% 30.16 in 10.0 mi West 11.5 mph - N/A   Clear
5:35 PM 41.0 °F 35.2 °F 5.0 °F 23% 30.16 in 10.0 mi West 9.2 mph - N/A   Clear
5:55 PM 39.2 °F 33.0 °F 5.0 °F 24% 30.16 in 10.0 mi West 9.2 mph - N/A   Clear
6:15 PM 35.6 °F 31.7 °F 3.2 °F 26% 30.17 in 10.0 mi West 4.6 mph - N/A   Clear
6:35 PM 35.6 °F 28.6 °F 5.0 °F 28% 30.17 in 10.0 mi West 9.2 mph - N/A   Clear
6:55 PM 33.8 °F 25.8 °F 5.0 °F 30% 30.17 in 10.0 mi West 10.4 mph - N/A   Clear
7:15 PM 33.8 °F 27.0 °F 5.0 °F 30% 30.18 in 10.0 mi West 8.1 mph - N/A   Clear
7:35 PM 32.0 °F 23.6 °F 6.8 °F 35% 30.18 in 10.0 mi West 10.4 mph - N/A   Clear
7:55 PM 32.0 °F 23.6 °F 6.8 °F 35% 30.18 in 10.0 mi West 10.4 mph - N/A   Clear
8:15 PM 30.2 °F 20.8 °F 6.8 °F 37% 30.19 in 10.0 mi West 11.5 mph - N/A   Clear
8:35 PM 30.2 °F 21.9 °F 6.8 °F 37% 30.19 in 10.0 mi WNW 9.2 mph - N/A   Clear
8:55 PM 30.2 °F 21.9 °F 8.6 °F 40% 30.19 in 10.0 mi WNW 9.2 mph - N/A   Clear
9:15 PM 28.4 °F 19.7 °F 6.8 °F 40% 30.19 in 10.0 mi West 9.2 mph - N/A   Clear
9:35 PM 28.4 °F 23.3 °F 6.8 °F 40% 30.19 in 10.0 mi NW 4.6 mph - N/A   Clear
9:55 PM 30.2 °F 21.9 °F 8.6 °F 40% 30.20 in 10.0 mi West 9.2 mph - N/A   Clear
10:15 PM 30.2 °F 23.4 °F 8.6 °F 40% 30.21 in 10.0 mi WNW 6.9 mph - N/A   Clear
10:35 PM 30.2 °F 21.9 °F 8.6 °F 40% 30.21 in 10.0 mi West 9.2 mph - N/A   Clear
10:55 PM 28.4 °F 20.4 °F 8.6 °F 43% 30.21 in 10.0 mi West 8.1 mph - N/A   Clear
11:15 PM 30.2 °F 21.3 °F 10.4 °F 44% 30.20 in 10.0 mi West 10.4 mph - N/A   Clear
11:35 PM 30.2 °F 23.4 °F 10.4 °F 44% 30.20 in 10.0 mi West 6.9 mph - N/A   Clear
11:55 PM 26.6 °F 22.6 °F 8.6 °F 47% 30.19 in 10.0 mi WNW 3.5 mph - N/A   Clear